DELTA 1 DEB, 9979

Orbit data source: Space-Track

DELTA 1 DEB, 9979 is space debris in LEO originally from a launch on Tue, 06 Nov 1973 UTC launched from the Air Force Western Test Range (AFWTR). Debris objects in space refer to the collection of defunct objects orbiting the Earth. Examples of debris include non-operational satellites, rocket bodies, and fragments generated from explosions, collisions, or faulty payload assembly.

Loading next visibility...
Identifier
9979, 1973-086GJ
Orbit
LEO
Country
Flag of USUS
Related business
Manufacturer
Unknown
Mission
Spacecraft
Bus & Motor
Unknown
Mass
Unknown
Launch date (UTC)
1973-11-06 (52 years ago)
Launch vehicle
Unknown
Launch site
Air Force Western Test Range (AFWTR)
Object type
Payload
Rocket body
Debris
Shape & HBR
Unknown shape, 0.1 m
Radar Cross Section
Small (<0.1 m²)

Expand to show TLE details & history
Last TLE update: 2 days ago

TLE from 2 days ago
0 DELTA 1 DEB
1 09979U 73086GJ  25295.83394427  .00000104  00000-0  19887-2 0  9991
2 09979 101.9333 251.1324 0607982 349.8271  34.0329 11.50800901492618
Epoch: 2025-10-22T20:00Z
TLE epoch observation values (Epoch: 2025-10-22T20:00:52.784Z)
Latitude
27.39961°
Longitude
-86.84741°
Altitude
1,504.667 km
Speed
7.287 km/s
True Right ascension
16h 19m 29s
True Declination
27° 16' 22"
Sunlit
Object was in daylight at epoch
Visualization orbit readout
Latitude
Unknown
Longitude
Unknown
Altitude
Unknown
Speed
Unknown
Apparent Right ascension
Unknown
Apparent Declination
Unknown
Sunlit
N/A
Visualization observer readout
Local Sidereal Time
07:29:32
Azimuth
Unknown
Elevation
Unknown
Doppler factor
Unknown
Orbital elements
Apogee altitude
2,410.321 km
Perigee altitude
1,402.924 km
Semi-major axis
8,284.76 km
Eccentricity
0.0608
Inclination
101.9333°
RAAN
251.1324°
Arg. of periapsis
349.8271°
True anomaly
38.18973°
Mean anomaly
34.0329°
Eccentric anomaly
36.0846°
Mean motion
2.87822 °/min
Orbital period
125.08 mins
BSTAR
0.0019887
Loading maneuver chart data...
Computing Atmospheric mass density...
Loading historical data...
Loading historical data...
Loading historical data...
Loading historical data...
Loading historical data...
Loading historical data...
Loading historical data...

Documentation

Showing up to 5 results
|